Home   Weather   Essen   Past weeks

Flag for Germany Past Weather in Essen, North Rhine-Westphalia, Germany — Yesterday and Last 2 Weeks

Now
81 °F

Passing clouds.


Feels Like: 80 °F
Forecast: 50 / 66 °F
Wind: 13 mph from South

Location: Duesseldorf

Current Time: Sep 25, 2016 at 4:08:11 PM

Latest Report: Sep 25, 2016 at 3:20 PM


Visibility: N/A

Pressure: 29.98 "Hg

Humidity: 37%

Dew Point: 52 °F

Location of EssenLocation

Past Weather in Essen — Graph

°F

Essen Temperature Yesterday

Maximum temperature yesterday: 75 °F (at 2:50 PM)
Minimum temperature yesterday: 48 °F (at 2:50 AM)
Average temperature yesterday: 63 °F

High & Low Weather Summary for the Past Weeks

 TemperatureHumidityPressure
High90 °F (Sep 13, 2:20 PM)100% (Sep 12, 2:50 AM)30.30 "Hg (Sep 12, 2:50 AM)
Low46 °F (Sep 22, 3:20 AM)27% (Sep 14, 3:50 PM)29.77 "Hg (Sep 15, 4:20 PM)
Average66 °F69%30.04 "Hg
* Reported Sep 10 2:20 PM — Sep 25 2:50 PM, Essen, Weather by CustomWeather, © 2016

Note: Actual official high and low records may vary slightly from our data, if they occured in-between our weather recording intervals... More about our weather records

Advertising

Essen Weather History for the Previous 24 Hours

Scroll right to see more
 ConditionsComfort  
Time TempWeatherWind HumidityBarometerVisibility
2:50 PM
Sun, Sep 25
79 °FPassing clouds.10 mph39%29.98 "HgN/A
2:20 PM79 °FSunny.13 mph42%29.98 "Hg10 mi
1:50 PM75 °FPassing clouds.14 mph47%30.01 "HgN/A
1:20 PM75 °FPassing clouds.15 mph44%30.01 "HgN/A
12:50 PM73 °FSunny.15 mph47%30.01 "Hg10 mi
12:20 PM73 °FPassing clouds.14 mph47%30.01 "HgN/A
11:50 AM72 °FSunny.16 mph50%30.01 "Hg10 mi
11:20 AM70 °FPassing clouds.15 mph53%30.01 "HgN/A
10:50 AM68 °FSunny.15 mph56%30.04 "Hg10 mi
10:20 AM66 °FSunny.16 mph56%30.04 "Hg10 mi
9:50 AM64 °FSunny.17 mph60%30.04 "Hg10 mi
9:20 AM61 °FSunny.17 mph68%30.04 "Hg10 mi
8:50 AM59 °FSunny.14 mph72%30.04 "Hg10 mi
8:20 AM57 °FSunny.12 mph72%30.04 "Hg10 mi
7:50 AM57 °FSunny.13 mph72%30.04 "Hg10 mi
7:20 AM57 °FClear.12 mph72%30.04 "Hg10 mi
6:50 AM57 °FClear.12 mph72%30.04 "Hg10 mi
6:20 AM57 °FClear.12 mph72%30.07 "Hg10 mi
5:50 AM57 °FClear.12 mph72%30.07 "Hg10 mi
5:20 AM57 °FClear.13 mph72%30.07 "Hg10 mi
4:50 AM59 °FClear.12 mph68%30.07 "Hg10 mi
4:20 AM59 °FClear.12 mph68%30.07 "Hg10 mi
3:50 AM59 °FClear.10 mph68%30.07 "Hg10 mi
3:20 AM59 °FClear.9 mph72%30.09 "Hg10 mi
2:50 AM59 °FClear.9 mph72%30.09 "Hg10 mi
2:20 AM59 °FClear.8 mph72%30.09 "Hg10 mi
1:50 AM59 °FClear.7 mph68%30.09 "Hg10 mi
1:20 AM59 °FClear.7 mph68%30.09 "Hg10 mi
12:50 AM61 °FClear.8 mph63%30.12 "Hg10 mi
12:20 AM61 °FClear.7 mph63%30.12 "Hg10 mi
11:50 PM
Sat, Sep 24
63 °FClear.9 mph59%30.12 "Hg10 mi
11:20 PM64 °FClear.9 mph56%30.12 "Hg10 mi
10:50 PM64 °FClear.9 mph56%30.12 "Hg10 mi
10:20 PM64 °FClear.9 mph56%30.12 "Hg10 mi
9:50 PM66 °FClear.8 mph52%30.12 "Hg10 mi
9:20 PM68 °FClear.10 mph49%30.12 "Hg10 mi
8:50 PM66 °FClear.8 mph52%30.12 "Hg10 mi
8:20 PM64 °FPassing clouds.6 mph56%30.12 "HgN/A
7:50 PM68 °FClear.7 mph49%30.12 "Hg10 mi
7:20 PM70 °FSunny.9 mph46%30.12 "Hg10 mi
6:50 PM72 °FSunny.8 mph44%30.12 "Hg10 mi
6:20 PM73 °FPassing clouds.12 mph38%30.12 "HgN/A
5:50 PM75 °FPassing clouds.12 mph39%30.15 "HgN/A
5:20 PM75 °FPassing clouds.8 mph39%30.15 "HgN/A
4:50 PM75 °FPassing clouds.9 mph41%30.15 "HgN/A
4:20 PM75 °FPassing clouds.10 mph41%30.18 "HgN/A
Weather by CustomWeather, © 2016

See weather overviewHow to use our weather pages